| time (UTC) | temp C | wind direction | speed KPH | gust KPH | rain 1hr cm | rain 24hr cm | rain mn cm | humidity % | barometer mb |
| 20260505113500 | 25 | 90 | 3.2 | 3.2 | 0.00 | 0.00 | 0.00 | 83 | 1017.5 |
| 20260505112955 | 25 | 96 | 4.8 | 6.4 | 0.00 | 0.00 | 0.00 | 84 | 1017.4 |
| 20260505112453 | 24 | 109 | 3.2 | 3.2 | 0.00 | 0.00 | 0.00 | 86 | 1017.2 |
| 20260505111949 | 24 | 93 | 9.7 | 11.3 | 0.00 | 0.00 | 0.00 | 86 | 1017.3 |
| 20260505111443 | 24 | 110 | 3.2 | 3.2 | 0.00 | 0.00 | 0.00 | 87 | 1017.3 |
| 20260505110940 | 23 | 100 | 6.4 | 6.4 | 0.00 | 0.00 | 0.00 | 88 | 1017.3 |
| 20260505110437 | 23 | 90 | 3.2 | 4.8 | 0.00 | 0.00 | 0.00 | 88 | 1017.3 |
| 20260505101909 | 22 | 80 | 0.0 | 0.0 | 0.00 | 0.00 | 0.00 | 88 | 1016.3 |
| 20260505101408 | 22 | 48 | 1.6 | 3.2 | 0.00 | 0.00 | 0.00 | 88 | 1016.7 |
| 20260505100905 | 23 | 58 | 0.0 | 0.0 | 0.00 | 0.00 | 0.00 | 88 | 1016.2 |
| 20260505100401 | 22 | 88 | 0.0 | 1.6 | 0.00 | 0.00 | 0.00 | 88 | 1016.3 |
| 20260505095857 | 23 | 97 | 0.0 | 0.0 | 0.00 | 0.00 | 0.00 | 87 | 1016.4 |
| 20260505095355 | 23 | 76 | 0.0 | 1.6 | 0.00 | 0.00 | 0.00 | 87 | 1016.4 |
| 20260505094850 | 23 | 85 | 3.2 | 3.2 | 0.00 | 0.00 | 0.00 | 88 | 1016.5 |
| 20260505094347 | 23 | 94 | 0.0 | 0.0 | 0.00 | 0.00 | 0.00 | 87 | 1016.4 |
| 20260505093843 | 23 | 78 | 0.0 | 1.6 | 0.00 | 0.00 | 0.00 | 87 | 1016.2 |
| 20260505093341 | 23 | 102 | 0.0 | 1.6 | 0.00 | 0.00 | 0.00 | 86 | 1016.4 |
| 20260505092838 | 23 | 134 | 4.8 | 6.4 | 0.00 | 0.00 | 0.00 | 87 | 1016.2 |
| 20260505092336 | 23 | 73 | 1.6 | 3.2 | 0.00 | 0.00 | 0.00 | 87 | 1016.1 |
| 20260505091833 | 23 | 179 | 4.8 | 4.8 | 0.00 | 0.00 | 0.00 | 87 | 1016.2 |
| 20260505091331 | 23 | 129 | 3.2 | 4.8 | 0.00 | 0.00 | 0.00 | 88 | 1016.2 |
| 20260505090829 | 22 | 83 | 3.2 | 4.8 | 0.00 | 0.00 | 0.00 | 88 | 1016.3 |
| 20260505090327 | 23 | 102 | 0.0 | 1.6 | 0.00 | 0.00 | 0.00 | 88 | 1016.1 |
| 20260505085824 | 23 | 94 | 0.0 | 0.0 | 0.00 | 0.00 | 0.00 | 87 | 1016.3 |
| 20260505085322 | 23 | 84 | 0.0 | 0.0 | 0.00 | 0.00 | 0.00 | 87 | 1016.3 |
| 20260505084819 | 23 | 93 | 0.0 | 0.0 | 0.00 | 0.00 | 0.00 | 86 | 1016.2 |
| 20260505084317 | 23 | 92 | 1.6 | 3.2 | 0.00 | 0.00 | 0.00 | 85 | 1016.3 |
| 20260505083814 | 23 | 105 | 4.8 | 4.8 | 0.00 | 0.00 | 0.00 | 86 | 1016.2 |
| 20260505083311 | 23 | 94 | 4.8 | 4.8 | 0.00 | 0.00 | 0.00 | 86 | 1016.2 |
| 20260505082808 | 23 | 119 | 1.6 | 1.6 | 0.00 | 0.00 | 0.00 | 86 | 1016.0 |
| 20260505082305 | 23 | 99 | 3.2 | 3.2 | 0.00 | 0.00 | 0.00 | 86 | 1016.1 |
| 20260505081801 | 23 | 97 | 1.6 | 3.2 | 0.00 | 0.00 | 0.00 | 86 | 1015.9 |
| 20260505081258 | 23 | 140 | 0.0 | 1.6 | 0.00 | 0.00 | 0.00 | 87 | 1016.0 |
| 20260505080754 | 23 | 114 | 1.6 | 1.6 | 0.00 | 0.00 | 0.00 | 88 | 1016.2 |
| 20260505080250 | 23 | 153 | 8.0 | 11.3 | 0.00 | 0.00 | 0.00 | 88 | 1015.8 |
| 20260505075746 | 23 | 117 | 1.6 | 3.2 | 0.00 | 0.00 | 0.00 | 88 | 1015.9 |
| 20260505075243 | 23 | 118 | 1.6 | 1.6 | 0.00 | 0.00 | 0.00 | 89 | 1015.9 |
| 20260505074741 | 23 | 108 | 1.6 | 3.2 | 0.00 | 0.00 | 0.00 | 90 | 1015.9 |
| 20260505074238 | 22 | 99 | 1.6 | 1.6 | 0.00 | 0.00 | 0.00 | 91 | 1016.1 |
| 20260505073735 | 22 | 94 | 0.0 | 1.6 | 0.00 | 0.00 | 0.00 | 91 | 1015.9 |
| 20260505073233 | 22 | 59 | 1.6 | 1.6 | 0.00 | 0.00 | 0.00 | 91 | 1015.7 |
| 20260505072729 | 23 | 47 | 1.6 | 1.6 | 0.00 | 0.00 | 0.00 | 90 | 1015.8 |
| 20260505072225 | 23 | 98 | 0.0 | 1.6 | 0.00 | 0.00 | 0.00 | 90 | 1016.0 |
| 20260505071721 | 22 | 165 | 1.6 | 3.2 | 0.00 | 0.00 | 0.00 | 91 | 1015.8 |
| 20260505071218 | 22 | 106 | 0.0 | 1.6 | 0.00 | 0.00 | 0.00 | 91 | 1015.9 |
| 20260505070716 | 22 | 87 | 0.0 | 0.0 | 0.00 | 0.00 | 0.00 | 91 | 1016.1 |
| 20260505070212 | 22 | 63 | 1.6 | 1.6 | 0.00 | 0.00 | 0.00 | 91 | 1016.2 |
| 20260505065708 | 22 | 71 | 0.0 | 1.6 | 0.00 | 0.00 | 0.00 | 91 | 1016.1 |
| 20260505065205 | 22 | 76 | 0.0 | 1.6 | 0.00 | 0.00 | 0.00 | 90 | 1015.9 |
| 20260505064702 | 22 | 76 | 3.2 | 3.2 | 0.00 | 0.00 | 0.00 | 90 | 1015.9 |
| 20260505064200 | 22 | 72 | 0.0 | 0.0 | 0.00 | 0.00 | 0.00 | 90 | 1016.0 |
| 20260505063657 | 22 | 64 | 1.6 | 1.6 | 0.00 | 0.00 | 0.00 | 90 | 1016.0 |
| 20260505063153 | 22 | 92 | 0.0 | 0.0 | 0.00 | 0.00 | 0.00 | 90 | 1016.2 |
| 20260505062649 | 22 | 87 | 0.0 | 0.0 | 0.00 | 0.00 | 0.00 | 90 | 1016.1 |
| 20260505062147 | 22 | 61 | 1.6 | 1.6 | 0.00 | 0.00 | 0.00 | 90 | 1016.0 |
| 20260505061644 | 22 | 68 | 0.0 | 1.6 | 0.00 | 0.00 | 0.00 | 90 | 1016.2 |
| 20260505061142 | 22 | 82 | 1.6 | 1.6 | 0.00 | 0.00 | 0.00 | 90 | 1016.3 |
| 20260505060639 | 22 | 40 | 0.0 | 0.0 | 0.00 | 0.00 | 0.00 | 90 | 1016.3 |
| 20260505060136 | 23 | 84 | 0.0 | 1.6 | 0.00 | 0.00 | 0.00 | 89 | 1016.1 |
| 20260505055631 | 23 | 48 | 1.6 | 1.6 | 0.00 | 0.00 | 0.00 | 90 | 1016.3 |
| 20260505055128 | 23 | 80 | 0.0 | 0.0 | 0.00 | 0.00 | 0.00 | 90 | 1016.3 |
| 20260505054625 | 23 | 105 | 0.0 | 1.6 | 0.00 | 0.00 | 0.00 | 90 | 1016.3 |
| 20260505054123 | 23 | 82 | 0.0 | 0.0 | 0.00 | 0.00 | 0.00 | 90 | 1016.5 |
| 20260505053621 | 23 | 82 | 0.0 | 1.6 | 0.00 | 0.00 | 0.00 | 89 | 1016.7 |
| 20260505053117 | 23 | 94 | 0.0 | 0.0 | 0.00 | 0.00 | 0.00 | 89 | 1016.9 |
| 20260505052614 | 23 | 86 | 0.0 | 0.0 | 0.00 | 0.00 | 0.00 | 89 | 1016.5 |
| 20260505052111 | 23 | 67 | 0.0 | 0.0 | 0.00 | 0.00 | 0.00 | 89 | 1016.5 |
| 20260505051608 | 23 | 65 | 0.0 | 1.6 | 0.00 | 0.00 | 0.00 | 89 | 1016.7 |
| 20260505051106 | 23 | 86 | 0.0 | 1.6 | 0.00 | 0.00 | 0.00 | 89 | 1017.0 |
| 20260505050604 | 23 | 82 | 1.6 | 1.6 | 0.00 | 0.00 | 0.00 | 89 | 1016.9 |
| 20260505041531 | 23 | 93 | 0.0 | 0.0 | 0.00 | 0.00 | 0.00 | 86 | 1017.5 |
| 20260505041029 | 23 | 87 | 4.8 | 4.8 | 0.00 | 0.00 | 0.00 | 86 | 1017.5 |
| 20260505040526 | 23 | 69 | 0.0 | 0.0 | 0.00 | 0.00 | 0.00 | 86 | 1017.5 |
| 20260505040023 | 23 | 99 | 1.6 | 1.6 | 0.00 | 0.00 | 0.00 | 87 | 1017.6 |
| 20260505035519 | 23 | 116 | 0.0 | 0.0 | 0.00 | 0.00 | 0.00 | 86 | 1017.6 |
| 20260505035016 | 23 | 117 | 0.0 | 0.0 | 0.00 | 0.00 | 0.00 | 86 | 1018.0 |
| 20260505034513 | 23 | 117 | 0.0 | 0.0 | 0.00 | 0.00 | 0.00 | 86 | 1017.8 |
| 20260505034010 | 23 | 111 | 0.0 | 0.0 | 0.00 | 0.00 | 0.00 | 86 | 1017.8 |
| 20260505033507 | 23 | 78 | 1.6 | 1.6 | 0.00 | 0.00 | 0.00 | 86 | 1017.9 |
| 20260505033005 | 23 | 187 | 0.0 | 0.0 | 0.00 | 0.00 | 0.00 | 87 | 1017.9 |
| 20260505032502 | 22 | 112 | 0.0 | 0.0 | 0.00 | 0.00 | 0.00 | 88 | 1017.6 |
| 20260505031958 | 22 | 112 | 0.0 | 0.0 | 0.00 | 0.00 | 0.00 | 88 | 1017.9 |
| 20260505031455 | 23 | 112 | 0.0 | 0.0 | 0.00 | 0.00 | 0.00 | 87 | 1017.9 |
| 20260505030952 | 23 | 112 | 0.0 | 0.0 | 0.00 | 0.00 | 0.00 | 87 | 1017.9 |
| 20260505030448 | 23 | 112 | 0.0 | 0.0 | 0.00 | 0.00 | 0.00 | 87 | 1017.9 |
| 20260505025943 | 23 | 112 | 0.0 | 0.0 | 0.00 | 0.00 | 0.00 | 86 | 1018.1 |
| 20260505025441 | 23 | 112 | 1.6 | 1.6 | 0.00 | 0.00 | 0.00 | 85 | 1017.7 |
| 20260505024939 | 23 | 107 | 0.0 | 0.0 | 0.00 | 0.00 | 0.00 | 84 | 1018.0 |
| 20260505024437 | 23 | 108 | 1.6 | 1.6 | 0.00 | 0.00 | 0.00 | 83 | 1017.8 |
| 20260505023933 | 23 | 73 | 1.6 | 3.2 | 0.00 | 0.00 | 0.00 | 84 | 1017.9 |
| 20260505023431 | 23 | 91 | 1.6 | 1.6 | 0.00 | 0.00 | 0.00 | 84 | 1017.9 |
| 20260505022928 | 23 | 100 | 3.2 | 3.2 | 0.00 | 0.00 | 0.00 | 84 | 1017.9 |
| 20260505022426 | 23 | 102 | 1.6 | 1.6 | 0.00 | 0.00 | 0.00 | 84 | 1017.9 |
| 20260505021922 | 23 | 104 | 1.6 | 1.6 | 0.00 | 0.00 | 0.00 | 84 | 1017.9 |
| 20260505021418 | 24 | 98 | 0.0 | 1.6 | 0.00 | 0.00 | 0.00 | 82 | 1017.8 |
| 20260505020914 | 24 | 86 | 1.6 | 1.6 | 0.00 | 0.00 | 0.00 | 82 | 1017.7 |
| 20260505020410 | 24 | 86 | 1.6 | 1.6 | 0.00 | 0.00 | 0.00 | 82 | 1017.7 |
| 20260505015907 | 24 | 83 | 4.8 | 4.8 | 0.00 | 0.00 | 0.00 | 82 | 1017.5 |
| 20260505015404 | 24 | 98 | 1.6 | 1.6 | 0.00 | 0.00 | 0.00 | 82 | 1017.6 |
| 20260505014902 | 24 | 88 | 3.2 | 3.2 | 0.00 | 0.00 | 0.00 | 82 | 1017.8 |
| 20260505014358 | 24 | 93 | 3.2 | 4.8 | 0.00 | 0.00 | 0.00 | 82 | 1017.4 |
| 20260505013855 | 24 | 87 | 4.8 | 4.8 | 0.00 | 0.00 | 0.00 | 82 | 1017.5 |
| 20260505013352 | 24 | 95 | 3.2 | 3.2 | 0.00 | 0.00 | 0.00 | 82 | 1017.4 |
| 20260505012851 | 24 | 90 | 3.2 | 3.2 | 0.00 | 0.00 | 0.00 | 82 | 1017.4 |
| 20260505012348 | 24 | 83 | 3.2 | 3.2 | 0.00 | 0.00 | 0.00 | 82 | 1017.3 |
| 20260505011844 | 24 | 112 | 0.0 | 1.6 | 0.00 | 0.00 | 0.00 | 82 | 1017.3 |
| 20260505011341 | 24 | 102 | 3.2 | 3.2 | 0.00 | 0.00 | 0.00 | 82 | 1017.2 |
| 20260505010837 | 24 | 94 | 3.2 | 3.2 | 0.00 | 0.00 | 0.00 | 82 | 1017.0 |
| 20260505010333 | 24 | 95 | 1.6 | 1.6 | 0.00 | 0.00 | 0.00 | 83 | 1017.0 |
| 20260505005829 | 24 | 103 | 0.0 | 1.6 | 0.00 | 0.00 | 0.00 | 82 | 1017.0 |
| 20260505005326 | 24 | 122 | 1.6 | 1.6 | 0.00 | 0.00 | 0.00 | 82 | 1016.9 |
| 20260505004824 | 24 | 93 | 4.8 | 4.8 | 0.00 | 0.00 | 0.00 | 81 | 1016.9 |
| 20260505004320 | 25 | 105 | 0.0 | 0.0 | 0.00 | 0.00 | 0.00 | 81 | 1016.8 |
| 20260505003817 | 25 | 86 | 3.2 | 3.2 | 0.00 | 0.00 | 0.00 | 81 | 1016.7 |
| 20260505003315 | 24 | 106 | 1.6 | 1.6 | 0.00 | 0.00 | 0.00 | 82 | 1016.5 |
| 20260505002810 | 24 | 77 | 0.0 | 0.0 | 0.00 | 0.00 | 0.00 | 82 | 1017.0 |
| 20260505002308 | 24 | 66 | 0.0 | 1.6 | 0.00 | 0.00 | 0.00 | 81 | 1016.9 |
| 20260505001806 | 25 | 88 | 3.2 | 4.8 | 0.00 | 0.00 | 0.00 | 81 | 1016.8 |
| 20260505001303 | 25 | 64 | 0.0 | 0.0 | 0.00 | 0.00 | 0.00 | 81 | 1016.5 |
| 20260505000800 | 25 | 65 | 1.6 | 1.6 | 0.00 | 0.00 | 0.00 | 81 | 1016.4 |
| 20260505000258 | 25 | 84 | 1.6 | 1.6 | 0.00 | 0.00 | 0.00 | 80 | 1016.5 |
| 20260504235754 | 25 | 114 | 3.2 | 3.2 | 0.00 | 0.00 | 0.00 | 79 | 1016.7 |
| 20260504235250 | 25 | 95 | 3.2 | 3.2 | 0.00 | 0.00 | 0.00 | 78 | 1016.7 |
| 20260504234748 | 25 | 93 | 3.2 | 3.2 | 0.00 | 0.00 | 0.00 | 78 | 1016.5 |
| 20260504234245 | 25 | 85 | 0.0 | 1.6 | 0.00 | 0.00 | 0.00 | 77 | 1016.4 |
| 20260504233741 | 25 | 69 | 1.6 | 1.6 | 0.00 | 0.00 | 0.00 | 77 | 1016.5 |
| 20260504233237 | 25 | 125 | 1.6 | 1.6 | 0.00 | 0.00 | 0.00 | 76 | 1016.7 |
| 20260504232734 | 25 | 85 | 0.0 | 0.0 | 0.00 | 0.00 | 0.00 | 76 | 1016.7 |
| 20260504232231 | 26 | 46 | 1.6 | 1.6 | 0.00 | 0.00 | 0.00 | 76 | 1016.5 |
| 20260504231728 | 26 | 88 | 0.0 | 0.0 | 0.00 | 0.00 | 0.00 | 76 | 1016.3 |
| 20260504231224 | 26 | 30 | 0.0 | 1.6 | 0.00 | 0.00 | 0.00 | 75 | 1016.5 |
| 20260504230720 | 26 | 89 | 3.2 | 4.8 | 0.00 | 0.00 | 0.00 | 75 | 1016.3 |
| 20260504230219 | 26 | 62 | 0.0 | 1.6 | 0.00 | 0.00 | 0.00 | 75 | 1016.1 |
| 20260504225718 | 26 | 51 | 3.2 | 3.2 | 0.00 | 0.00 | 0.00 | 75 | 1015.9 |
| 20260504225213 | 26 | 155 | 8.0 | 11.3 | 0.00 | 0.00 | 0.00 | 74 | 1015.8 |
| 20260504224711 | 26 | 131 | 6.4 | 6.4 | 0.00 | 0.00 | 0.00 | 74 | 1016.0 |
| 20260504224208 | 26 | 65 | 1.6 | 1.6 | 0.00 | 0.00 | 0.00 | 74 | 1016.0 |
| 20260504223704 | 26 | 60 | 1.6 | 1.6 | 0.00 | 0.00 | 0.00 | 74 | 1015.7 |
| 20260504223200 | 26 | 65 | 3.2 | 3.2 | 0.00 | 0.00 | 0.00 | 74 | 1015.8 |
| 20260504222657 | 26 | 61 | 1.6 | 3.2 | 0.00 | 0.00 | 0.00 | 74 | 1015.7 |
| 20260504222153 | 26 | 120 | 1.6 | 1.6 | 0.00 | 0.00 | 0.00 | 74 | 1015.6 |
| 20260504221651 | 27 | 82 | 0.0 | 0.0 | 0.00 | 0.00 | 0.00 | 73 | 1015.3 |
| 20260504221148 | 27 | 68 | 1.6 | 1.6 | 0.00 | 0.00 | 0.00 | 73 | 1015.3 |
| 20260504220644 | 27 | 72 | 1.6 | 1.6 | 0.00 | 0.00 | 0.00 | 72 | 1015.5 |
| 20260504220142 | 27 | 55 | 1.6 | 1.6 | 0.00 | 0.00 | 0.00 | 72 | 1015.3 |
| 20260504215638 | 27 | 99 | 3.2 | 4.8 | 0.00 | 0.00 | 0.00 | 71 | 1015.1 |
| 20260504215136 | 27 | 90 | 0.0 | 0.0 | 0.00 | 0.00 | 0.00 | 70 | 1015.0 |
| 20260504214631 | 28 | 62 | 3.2 | 6.4 | 0.00 | 0.00 | 0.00 | 69 | 1015.0 |
| 20260504214128 | 28 | 49 | 9.7 | 12.9 | 0.00 | 0.00 | 0.00 | 68 | 1015.1 |
| 20260504213625 | 28 | 204 | 6.4 | 9.7 | 0.00 | 0.00 | 0.00 | 68 | 1015.0 |
| 20260504213121 | 28 | 235 | 3.2 | 3.2 | 0.00 | 0.00 | 0.00 | 68 | 1014.9 |
| 20260504212618 | 28 | 58 | 3.2 | 3.2 | 0.00 | 0.00 | 0.00 | 69 | 1014.8 |
| 20260504212115 | 28 | 111 | 3.2 | 4.8 | 0.00 | 0.00 | 0.00 | 68 | 1014.8 |
| 20260504211612 | 28 | 101 | 6.4 | 6.4 | 0.00 | 0.00 | 0.00 | 67 | 1014.8 |
| 20260504211109 | 29 | 71 | 3.2 | 6.4 | 0.00 | 0.00 | 0.00 | 66 | 1014.7 |
| 20260504210606 | 28 | 44 | 6.4 | 9.7 | 0.00 | 0.00 | 0.00 | 68 | 1014.8 |
| 20260504205601 | 28 | 203 | 1.6 | 3.2 | 0.00 | 0.00 | 0.00 | 68 | 1014.7 |
| 20260504205058 | 29 | 36 | 1.6 | 3.2 | 0.00 | 0.00 | 0.00 | 67 | 1014.6 |
| 20260504204555 | 29 | 44 | 3.2 | 3.2 | 0.00 | 0.00 | 0.00 | 66 | 1014.6 |
| 20260504204055 | 29 | 119 | 4.8 | 4.8 | 0.00 | 0.00 | 0.00 | 66 | 1014.4 |
| 20260504203552 | 30 | 133 | 8.0 | 11.3 | 0.00 | 0.00 | 0.00 | 65 | 1014.5 |
| 20260504203050 | 30 | 106 | 4.8 | 6.4 | 0.00 | 0.00 | 0.00 | 65 | 1014.5 |
| 20260504202545 | 29 | 119 | 3.2 | 6.4 | 0.00 | 0.00 | 0.00 | 65 | 1014.8 |
| 20260504202042 | 29 | 72 | 4.8 | 4.8 | 0.00 | 0.00 | 0.00 | 66 | 1014.6 |
| 20260504201539 | 29 | 146 | 6.4 | 6.4 | 0.00 | 0.00 | 0.00 | 65 | 1014.5 |
| 20260504201037 | 30 | 108 | 4.8 | 9.7 | 0.00 | 0.00 | 0.00 | 65 | 1014.5 |
| 20260504200533 | 30 | 74 | 8.0 | 12.9 | 0.00 | 0.00 | 0.00 | 64 | 1014.5 |
| 20260504200030 | 29 | 96 | 6.4 | 9.7 | 0.00 | 0.00 | 0.00 | 68 | 1014.6 |
| 20260504195526 | 29 | 70 | 3.2 | 3.2 | 0.00 | 0.00 | 0.00 | 69 | 1014.7 |
| 20260504195023 | 30 | 110 | 14.5 | 17.7 | 0.00 | 0.00 | 0.00 | 66 | 1014.7 |
| 20260504194519 | 30 | 60 | 4.8 | 4.8 | 0.00 | 0.00 | 0.00 | 63 | 1014.7 |
| 20260504194014 | 30 | 113 | 6.4 | 6.4 | 0.00 | 0.00 | 0.00 | 64 | 1014.7 |
| 20260504193511 | 30 | 126 | 3.2 | 4.8 | 0.00 | 0.00 | 0.00 | 65 | 1014.9 |
| 20260504193010 | 29 | 144 | 1.6 | 1.6 | 0.00 | 0.00 | 0.00 | 68 | 1014.7 |
| 20260504192508 | 29 | 79 | 9.7 | 11.3 | 0.00 | 0.00 | 0.00 | 64 | 1014.6 |
| 20260504192006 | 29 | 87 | 12.9 | 16.1 | 0.00 | 0.00 | 0.00 | 64 | 1014.8 |
| 20260504191504 | 30 | 110 | 9.7 | 14.5 | 0.00 | 0.00 | 0.00 | 62 | 1014.6 |
| 20260504190959 | 30 | 107 | 6.4 | 6.4 | 0.00 | 0.00 | 0.00 | 63 | 1015.0 |
| 20260504190455 | 30 | 102 | 3.2 | 3.2 | 0.00 | 0.00 | 0.00 | 60 | 1014.9 |
| 20260504185952 | 30 | 127 | 1.6 | 1.6 | 0.00 | 0.00 | 0.00 | 61 | 1015.1 |
| 20260504185449 | 29 | 88 | 3.2 | 4.8 | 0.00 | 0.00 | 0.00 | 63 | 1015.0 |
| 20260504184945 | 29 | 80 | 8.0 | 9.7 | 0.00 | 0.00 | 0.00 | 63 | 1015.1 |
| 20260504184441 | 30 | 104 | 4.8 | 4.8 | 0.00 | 0.00 | 0.00 | 60 | 1015.2 |
| 20260504183936 | 31 | 113 | 6.4 | 6.4 | 0.00 | 0.00 | 0.00 | 60 | 1015.3 |
| 20260504183434 | 30 | 73 | 0.0 | 1.6 | 0.00 | 0.00 | 0.00 | 62 | 1015.2 |
| 20260504182932 | 29 | 72 | 3.2 | 4.8 | 0.00 | 0.00 | 0.00 | 63 | 1015.3 |
| 20260504182429 | 29 | 101 | 8.0 | 9.7 | 0.00 | 0.00 | 0.00 | 62 | 1015.3 |
| 20260504181926 | 30 | 101 | 6.4 | 9.7 | 0.00 | 0.00 | 0.00 | 61 | 1015.4 |
| 20260504181423 | 30 | 87 | 3.2 | 4.8 | 0.00 | 0.00 | 0.00 | 60 | 1015.5 |
| 20260504180922 | 30 | 188 | 6.4 | 6.4 | 0.00 | 0.00 | 0.00 | 57 | 1015.5 |
| 20260504180420 | 30 | 128 | 3.2 | 4.8 | 0.00 | 0.00 | 0.00 | 61 | 1015.4 |
| 20260504175918 | 29 | 68 | 1.6 | 1.6 | 0.00 | 0.00 | 0.00 | 63 | 1015.5 |
| 20260504175414 | 29 | 104 | 6.4 | 6.4 | 0.00 | 0.00 | 0.00 | 64 | 1015.6 |
| 20260504174912 | 30 | 81 | 9.7 | 11.3 | 0.00 | 0.00 | 0.00 | 61 | 1015.7 |
| 20260504174410 | 30 | 154 | 4.8 | 4.8 | 0.00 | 0.00 | 0.00 | 62 | 1015.7 |
| 20260504173907 | 29 | 59 | 4.8 | 4.8 | 0.00 | 0.00 | 0.00 | 65 | 1015.5 |
| 20260504173403 | 29 | 100 | 14.5 | 16.1 | 0.00 | 0.00 | 0.00 | 62 | 1015.9 |
| 20260504172900 | 30 | 118 | 6.4 | 9.7 | 0.00 | 0.00 | 0.00 | 61 | 1016.2 |
| 20260504172357 | 30 | 129 | 8.0 | 11.3 | 0.00 | 0.00 | 0.00 | 60 | 1015.9 |
| 20260504171852 | 30 | 105 | 6.4 | 6.4 | 0.00 | 0.00 | 0.00 | 59 | 1015.9 |
| 20260504171350 | 30 | 104 | 0.0 | 1.6 | 0.00 | 0.00 | 0.00 | 60 | 1016.0 |
| 20260504170847 | 30 | 175 | 8.0 | 11.3 | 0.00 | 0.00 | 0.00 | 59 | 1016.0 |
| 20260504170344 | 30 | 83 | 3.2 | 4.8 | 0.00 | 0.00 | 0.00 | 59 | 1016.3 |
| 20260504160302 | 29 | 115 | 6.4 | 9.7 | 0.00 | 0.00 | 0.00 | 60 | 1016.8 |
| 20260504150728 | 28 | 84 | 12.9 | 17.7 | 0.00 | 0.00 | 0.00 | 61 | 1017.2 |
| 20260504150224 | 28 | 145 | 8.0 | 12.9 | 0.00 | 0.00 | 0.00 | 64 | 1017.2 |
| 20260504141154 | 27 | 193 | 9.7 | 20.9 | 0.00 | 0.00 | 0.00 | 71 | 1017.2 |
| 20260504140650 | 27 | 89 | 3.2 | 4.8 | 0.00 | 0.00 | 0.00 | 73 | 1017.2 |
| 20260504140146 | 27 | 50 | 8.0 | 12.9 | 0.00 | 0.00 | 0.00 | 72 | 1017.3 |
| 20260504130614 | 26 | 90 | 6.4 | 11.3 | 0.00 | 0.00 | 0.00 | 77 | 1017.3 |
| 20260504130111 | 26 | 75 | 9.7 | 12.9 | 0.00 | 0.00 | 0.00 | 77 | 1017.5 |